Wetbulb
60.49 60.80 61.71 61.97 63.28 63.46 63.52 63.49 61.68 59.55 58.57 57.58 56.62 55.71 55.12 54.51 54.84 54.72 53.58 53.55 53.09 53.80 54.60 52.60 53.12 53.72 47.19 40.10 40.02 48.42 53.44 51.21 51.66 49.93 45.32 42.92 41.02 40.19 36.93 38.54 40.58 41.45 43.96 45.35 48.04 49.67 50.83
58.26 58.41 58.95 60.46 61.47 62.23 63.25 63.35 63.25 60.19 58.81 57.73 56.85 55.76 54.83 53.88 54.38 53.66 53.54 53.05 52.40 53.08 54.03 52.44 52.21 52.87 43.37 32.99 45.33 46.34 47.21 48.78 48.96 47.15 45.46 44.72 41.83 42.80 39.41 39.70 39.20 42.14 44.01 45.68 46.79 48.28 50.19
56.09 56.84 57.24 57.32 59.50 60.91 61.70 62.54 62.74 61.21 59.06 57.87 56.72 55.73 54.44 53.84 54.13 52.98 52.23 52.66 51.91 52.28 53.45 53.46 51.78 49.79 42.27 38.71 45.88 46.18 50.07 48.33 48.81 47.78 43.84 45.70 46.41 42.41 40.92 39.16 42.83 42.52 40.63 44.28 43.87 47.35 48.70
54.44 54.61 55.40 56.13 57.52 58.29 60.04 61.26 62.02 61.24 59.24 57.94 56.59 55.42 53.73 53.53 52.87 52.20 51.97 51.20 51.42 52.71 53.41 53.44 51.89 45.86 38.71 47.74 45.51 45.68 48.36 47.81 49.07 48.92 47.15 47.45 47.40 43.90 41.49 42.95 41.90 38.60 40.16 36.34 44.04 45.99 48.00
53.59 53.66 54.13 54.53 55.28 56.70 58.37 59.96 61.05 61.60 59.35 57.92 56.54 55.26 53.49 53.19 51.91 50.72 51.06 50.88 52.19 52.79 52.47 52.24 45.02 41.94 36.58 49.10 44.61 44.90 44.13 44.76 46.63 47.26 47.73 47.85 45.27 41.06 40.66 35.73 35.51 36.27 32.63 35.52 40.04 45.10 44.05
52.98 53.15 53.24 53.52 54.04 55.44 57.13 59.07 59.91 61.78 59.51 57.67 56.31 54.59 53.30 52.51 51.45 50.45 51.21 51.74 51.79 50.80 49.24 49.30 46.61 37.44 39.90 39.29 43.22 44.48 45.59 46.08 43.62 43.22 42.68 41.77 40.66 35.03 34.30 34.98 27.59 30.91 34.19 36.84 37.61 43.82 43.19
52.24 52.16 52.52 52.92 53.19 54.20 55.39 57.39 58.78 61.15 59.22 57.33 55.74 53.82 52.78 52.02 50.30 50.16 48.94 44.65 40.53 38.29 41.75 37.49 37.78 38.25 40.25 43.31 45.43 43.97 45.52 43.33 43.52 40.34 35.41 37.99 34.17 30.49 33.22 37.15 35.46 35.88 34.85 35.37 38.90 43.75 40.85
52.37 51.94 51.81 51.64 53.16 53.03 54.47 56.51 58.05 58.30 59.08 56.87 55.12 53.40 52.64 51.45 50.40 51.54 46.85 41.20 40.42 40.48 35.21 42.05 41.07 40.65 42.75 43.46 38.41 42.13 45.76 39.11 38.62 33.47 36.51 35.12 31.20 35.59 37.75 36.76 36.52 36.84 34.88 34.66 40.57 43.42 41.33
51.99 51.84 51.41 51.19 51.91 52.80 53.56 55.01 57.24 57.62 58.63 56.39 54.50 53.13 52.04 50.83 50.96 46.63 43.02 43.53 45.17 43.17 34.99 39.18 41.41 39.86 40.35 42.67 38.11 38.96 42.93 40.14 36.56 34.04 34.90 32.72 35.64 38.53 35.98 35.28 36.40 35.60 35.92 37.30 37.49 41.54 41.49
51.73 51.21 51.15 50.80 51.07 52.03 52.65 54.36 54.98 56.41 57.87 55.60 53.96 52.76 51.55 51.16 45.55 44.82 42.09 47.05 45.48 43.61 20.66 30.14 36.46 39.35 42.45 42.24 34.63 42.83 44.26 40.16 35.84 33.85 36.40 37.23 39.91 36.76 34.88 37.02 37.46 33.37 40.39 40.97 39.27 37.63 34.34
51.10 50.88 51.32 50.61 50.46 50.58 51.70 53.29 53.48 54.94 56.98 54.81 53.56 52.25 51.28 50.81 44.83 42.66 45.13 45.74 44.29 37.50 7.23 31.57 35.92 44.89 42.79 38.94 38.93 38.79 44.86 42.09 36.27 37.85 37.85 35.13 37.92 35.68 35.87 38.06 39.33 36.33 42.04 39.96 39.02 36.25 35.55
51.12 50.40 50.92 50.31 50.21 50.39 50.89 52.06 52.86 54.93 56.35 53.88 52.80 51.85 51.28 48.38 45.67 46.06 45.96 45.27 40.76 18.38 8.67 24.89 36.12 35.86 36.52 38.79 39.08 41.22 41.74 43.75 42.51 39.13 39.76 38.16 41.77 40.34 38.88 41.03 41.69 42.71 39.70 38.62 38.06 35.70 27.80
50.63 50.28 50.32 50.40 49.69 50.02 50.87 51.50 52.61 54.75 55.24 53.15 52.22 51.37 49.37 48.09 42.30 45.86 45.70 39.34 22.06 10.91 30.09 25.78 28.40 34.82 34.38 34.03 36.51 37.53 37.10 36.84 34.95 31.43 30.15 35.91 36.34 40.23 40.97 37.88 41.61 39.89 35.43 28.96 26.51 26.74 26.39
50.69 50.33 50.26 50.51 49.55 50.26 50.66 51.30 52.76 54.94 54.09 52.34 51.53 51.54 49.29 48.40 46.04 46.36 40.78 28.47 11.36 26.67 25.70 33.90 33.08 33.43 29.20 33.68 33.40 35.56 33.54 31.59 36.65 33.91 28.39 28.91 23.33 37.27 40.11 37.92 36.56 35.14 33.49 27.37 22.40 21.52 22.71
50.76 50.27 49.60 49.56 49.04 49.46 51.04 52.36 53.20 55.64 53.01 52.00 51.56 46.71 45.16 45.66 46.85 44.46 34.10 17.95 19.37 26.45 31.76 31.37 32.19 28.16 28.32 32.39 32.64 32.60 31.27 31.86 34.69 36.27 29.67 26.16 30.10 39.19 40.94 40.81 39.61 34.53 32.00 33.43 26.57 25.26 22.17
50.56 50.14 49.55 49.49 49.93 50.85 51.89 53.73 56.35 53.83 52.63 52.13 46.00 44.09 43.42 46.75 45.60 40.45 29.03 27.14 26.63 34.18 35.89 34.35 27.90 29.62 24.83 27.87 28.55 29.39 30.50 34.76 35.08 36.86 35.35 30.55 27.31 34.85 39.48 41.23 41.03 35.46 36.88 28.45 28.12 23.08 18.12
50.34 50.03 49.90 49.66 49.86 50.92 53.51 54.57 54.89 52.64 52.52 50.92 44.88 38.63 44.55 46.70 44.59 36.93 24.52 26.59 33.11 38.82 38.26 34.17 31.32 29.99 29.34 28.42 29.39 28.87 31.18 35.26 36.82 36.32 36.34 33.23 29.05 29.79 35.33 32.97 33.60 35.30 31.68 30.76 29.37 25.01 20.48
50.03 49.94 49.95 49.50 50.44 52.36 53.16 55.13 53.62 52.71 52.34 49.02 41.96 34.28 45.24 45.27 35.14 33.01 28.57 33.06 39.68 37.38 38.84 37.17 36.65 34.79 30.15 30.77 29.93 30.37 30.74 33.59 38.75 37.41 32.57 34.00 30.48 23.14 28.60 35.87 37.87 35.88 33.20 30.01 22.54 22.62 20.58
49.54 49.64 49.82 51.09 51.65 52.52 53.68 53.85 52.56 53.05 52.26 44.63 39.32 38.70 45.21 44.65 26.11 27.80 32.07 36.41 37.75 36.66 36.41 36.62 35.78 37.05 35.47 32.44 30.38 32.70 33.55 39.48 39.84 37.43 33.25 34.07 27.20 18.24 23.60 29.04 34.06 32.52 33.82 33.49 30.25 27.37 21.36
49.01 49.13 49.22 51.81 51.62 53.11 54.23 52.44 52.26 52.95 52.19 44.23 38.19 33.94 39.45 41.16 38.97 31.23 32.75 33.92 34.70 39.07 37.58 38.44 35.94 36.33 34.21 32.85 34.30 32.32 32.89 38.34 39.83 38.57 42.78 38.40 29.21 25.22 19.80 24.93 29.66 28.75 31.20 33.58 30.03 20.61 25.04
48.90 48.44 49.84 51.69 51.93 54.66 53.15 51.88 52.26 52.82 52.48 43.54 36.84 32.38 35.98 31.87 34.18 34.68 33.21 35.55 34.28 33.99 37.20 37.44 34.73 35.11 33.74 30.39 31.42 32.35 34.66 35.24 38.67 40.72 36.70 34.67 26.81 24.27 29.37 30.90 30.93 30.80 31.00 31.79 25.46 30.24 26.54
48.71 48.58 50.75 51.28 53.15 53.75 52.45 51.70 52.46 52.66 50.29 40.53 35.71 33.17 33.31 31.28 33.84 32.48 32.08 33.73 34.14 34.81 35.19 33.94 33.83 35.33 34.30 32.14 32.51 31.93 34.51 32.12 32.09 35.68 33.55 34.14 25.68 26.05 25.94 30.71 29.80 29.01 30.35 30.70 31.16 31.57 31.77
47.82 49.09 50.91 52.03 52.96 53.06 51.50 51.57 52.43 52.27 47.53 38.31 36.12 36.90 35.59 33.62 30.94 31.20 31.26 33.91 35.72 37.19 37.90 37.85 36.46 34.40 33.43 34.42 35.15 35.47 34.76 36.27 35.48 34.45 32.78 32.15 28.37 25.05 21.57 27.45 27.45 22.98 27.84 28.93 30.02 31.33 31.82
47.83 49.51 50.86 51.44 52.23 52.16 51.14 50.94 52.12 51.88 45.02 39.46 36.05 36.04 33.92 30.21 32.02 32.71 34.84 36.17 36.55 36.08 35.57 37.59 37.43 35.31 37.11 39.64 38.69 36.64 35.43 35.34 35.52 33.37 35.37 31.75 29.52 27.51 20.43 23.83 13.93 27.54 31.65 32.41 31.62 32.56 33.59
48.17 49.60 51.17 52.07 53.61 52.17 51.37 50.73 51.70 51.07 46.08 39.17 37.09 35.35 33.40 29.24 31.42 32.71 35.14 34.87 35.56 35.62 36.33 36.95 37.28 37.05 39.48 36.51 31.99 29.46 28.67 30.36 31.25 32.67 32.47 33.22 29.88 25.55 22.13 19.52 24.09 27.25 30.27 29.82 28.01 29.18 33.82
48.76 49.71 50.42 51.21 52.05 51.66 51.59 51.72 51.28 51.61 46.33 39.74 37.27 36.72 34.85 32.85 28.40 29.94 32.59 33.05 31.42 30.61 32.32 35.34 37.27 39.03 38.34 34.06 30.85 25.34 22.78 25.93 25.23 27.32 32.58 32.03 30.77 28.20 23.14 20.19 18.82 25.94 32.92 34.20 31.56 24.35 32.69
48.96 49.81 49.87 50.45 52.47 51.47 51.23 50.22 49.73 51.18 45.99 40.10 37.68 38.91 33.55 27.59 28.80 29.91 30.86 31.68 33.10 32.38 31.25 32.65 34.02 35.72 36.43 30.58 28.26 24.69 24.71 28.73 24.71 24.86 25.01 26.67 26.59 23.78 24.18 22.41 25.59 31.21 33.79 33.96 22.15 24.52 33.49
49.15 49.78 49.96 50.35 52.26 51.60 51.00 50.70 50.89 50.10 45.40 40.76 38.68 40.03 34.51 29.46 30.31 32.65 32.40 29.97 31.46 33.14 31.28 32.62 33.84 34.43 32.98 29.68 27.69 26.83 24.94 26.73 23.97 26.10 26.01 26.12 23.34 23.41 23.44 20.68 18.77 32.75 32.51 26.42 30.74 34.32 35.00
48.91 50.14 52.08 51.48 51.44 51.44 49.93 49.67 50.64 49.36 46.43 43.20 37.32 40.13 39.90 33.49 32.21 35.45 35.57 35.29 34.24 33.10 32.56 31.18 30.69 31.38 32.78 30.21 28.94 28.97 28.20 26.15 24.50 22.25 27.16 25.27 28.12 26.04 27.02 26.36 33.65 34.30 32.76 36.18 36.15 35.26 35.55
MSLP
1020.29 1019.59 1019.07 1018.65 1018.00 1017.56 1017.26 1016.85 1016.85 1016.92 1017.12 1017.36 1017.33 1017.31 1017.35 1017.09 1017.26 1017.26 1017.27 1017.24 1016.98 1016.76 1016.76 1016.73 1016.71 1016.61 1016.71 1016.63 1015.74 1014.78 1014.54 1014.59 1014.70 1015.10 1015.42 1015.77 1015.85 1015.91 1015.55 1014.88 1014.64 1013.95 1013.20 1012.65 1012.62 1012.59 1012.47
1020.38 1019.56 1019.11 1018.62 1017.86 1017.39 1016.67 1016.30 1015.99 1016.20 1016.42 1016.48 1016.82 1016.95 1016.93 1016.88 1016.95 1017.02 1017.07 1017.06 1016.84 1016.63 1016.64 1016.62 1016.60 1016.68 1016.83 1016.35 1014.78 1014.67 1014.66 1014.73 1014.92 1015.18 1015.22 1015.37 1015.30 1015.32 1015.28 1014.86 1014.35 1013.34 1013.29 1013.16 1012.91 1013.11 1012.35
1020.30 1019.83 1019.14 1018.35 1017.91 1017.17 1016.67 1015.86 1015.45 1015.22 1015.96 1016.12 1016.16 1016.49 1016.59 1016.64 1016.64 1016.75 1016.91 1016.87 1016.65 1016.53 1016.52 1016.53 1016.49 1016.70 1016.74 1015.65 1014.59 1014.59 1014.55 1014.75 1014.90 1015.01 1015.09 1015.06 1015.18 1015.15 1014.90 1014.66 1014.14 1013.64 1013.44 1013.19 1012.91 1013.01 1012.24
1019.94 1019.40 1019.14 1018.39 1017.60 1017.10 1016.37 1015.71 1015.08 1014.44 1015.09 1015.55 1015.89 1016.08 1016.30 1016.38 1016.47 1016.50 1016.75 1016.67 1016.48 1016.42 1016.37 1016.40 1016.41 1016.83 1016.32 1014.76 1014.49 1014.62 1014.66 1014.92 1015.05 1015.08 1015.05 1015.20 1015.25 1015.31 1015.08 1014.60 1013.87 1013.86 1013.75 1012.97 1012.66 1013.35 1013.34
1019.67 1019.04 1018.56 1018.01 1017.55 1016.78 1016.26 1015.46 1014.76 1014.11 1014.57 1014.97 1015.42 1015.59 1016.01 1016.16 1016.22 1016.32 1016.60 1016.44 1016.28 1016.20 1016.18 1016.25 1016.70 1016.87 1015.82 1014.47 1014.41 1014.27 1014.43 1014.69 1014.89 1015.02 1015.01 1015.19 1015.48 1015.32 1015.20 1014.89 1013.79 1013.47 1013.12 1012.44 1012.48 1012.97 1013.42
1019.40 1018.61 1018.15 1017.69 1017.26 1016.56 1015.92 1015.16 1014.45 1013.32 1013.70 1014.15 1014.80 1015.20 1015.59 1015.96 1015.94 1016.03 1016.37 1016.20 1016.20 1016.20 1016.24 1016.29 1016.63 1017.07 1015.51 1014.81 1014.45 1014.26 1014.37 1014.55 1014.66 1014.90 1014.96 1014.98 1014.81 1015.07 1015.09 1014.23 1012.71 1012.48 1012.80 1012.74 1012.40 1012.71 1013.45
1018.96 1018.37 1017.86 1017.40 1016.89 1016.33 1015.59 1014.94 1014.11 1013.38 1012.87 1013.65 1014.32 1015.08 1015.29 1015.75 1015.66 1015.77 1016.38 1016.39 1016.79 1016.67 1016.30 1016.02 1015.94 1015.60 1014.94 1014.71 1014.25 1014.37 1014.54 1014.57 1014.51 1014.96 1014.83 1014.93 1014.67 1014.23 1013.82 1013.46 1012.80 1012.15 1012.21 1012.80 1013.15 1012.89 1013.88
1018.32 1017.93 1017.42 1016.95 1016.54 1015.97 1015.10 1014.43 1013.66 1013.33 1012.27 1013.14 1013.91 1014.70 1015.00 1015.48 1015.51 1015.68 1016.20 1016.24 1015.75 1015.69 1015.83 1015.53 1015.41 1015.22 1014.78 1014.70 1014.48 1014.40 1014.47 1014.92 1014.71 1014.94 1014.94 1014.83 1014.03 1013.63 1013.49 1013.06 1012.51 1012.15 1012.00 1012.65 1013.34 1013.51 1013.54
1017.83 1017.25 1016.91 1016.43 1015.74 1015.19 1014.62 1013.88 1013.21 1012.84 1011.74 1012.50 1013.43 1014.37 1014.72 1015.21 1015.38 1015.90 1015.95 1015.69 1015.44 1015.48 1015.82 1015.42 1014.92 1014.76 1014.78 1014.78 1014.77 1014.51 1014.66 1014.91 1014.91 1014.81 1014.45 1013.99 1013.38 1013.21 1013.11 1012.91 1012.35 1011.51 1011.40 1011.62 1012.57 1013.54 1014.17
1017.20 1016.71 1016.27 1015.78 1015.27 1014.97 1014.27 1013.75 1013.03 1012.66 1011.46 1012.20 1013.01 1013.90 1014.47 1015.10 1015.65 1015.63 1015.71 1015.19 1015.55 1015.63 1016.18 1015.57 1014.92 1014.60 1014.75 1014.68 1014.72 1014.49 1014.93 1015.19 1014.93 1014.54 1013.67 1013.28 1012.98 1012.71 1012.97 1012.46 1011.38 1011.07 1010.88 1011.35 1012.36 1013.64 1013.94
1016.52 1016.03 1015.34 1014.96 1014.64 1014.25 1013.79 1013.13 1012.87 1012.25 1011.07 1011.53 1012.36 1013.52 1014.07 1014.68 1014.80 1015.12 1015.04 1015.26 1015.62 1016.04 1016.61 1015.33 1014.81 1014.34 1014.39 1014.79 1014.85 1014.63 1014.66 1014.52 1014.07 1013.77 1013.60 1013.15 1012.76 1012.66 1012.69 1011.73 1011.03 1011.02 1010.71 1011.18 1012.12 1013.89 1015.04
1015.78 1015.15 1014.66 1014.30 1013.83 1013.41 1013.09 1012.54 1012.20 1011.46 1010.96 1011.13 1011.93 1013.10 1013.77 1014.74 1014.85 1014.67 1014.94 1015.36 1016.10 1017.51 1016.64 1015.80 1014.90 1014.57 1014.64 1014.47 1014.53 1014.40 1014.36 1014.30 1013.64 1013.28 1013.18 1013.18 1012.71 1012.24 1012.20 1011.60 1010.83 1011.10 1012.05 1013.28 1014.33 1014.69 1015.54
1014.84 1014.29 1013.88 1013.38 1012.98 1012.65 1012.10 1011.54 1010.95 1010.62 1010.59 1010.96 1011.66 1013.05 1013.49 1014.11 1014.36 1014.52 1015.08 1016.04 1017.12 1017.07 1016.43 1015.87 1015.26 1014.81 1014.70 1014.48 1014.17 1014.16 1014.07 1013.87 1013.88 1013.59 1013.55 1013.78 1013.61 1012.95 1012.64 1012.02 1011.86 1012.19 1012.72 1014.40 1015.54 1015.92 1015.43
1013.80 1013.26 1013.09 1012.41 1012.22 1011.59 1010.96 1010.45 1009.45 1009.43 1009.72 1010.67 1011.76 1012.84 1013.41 1013.73 1013.94 1014.40 1015.50 1016.76 1017.37 1016.47 1016.11 1015.69 1015.35 1015.05 1014.87 1014.33 1013.96 1013.86 1013.56 1013.78 1013.68 1013.74 1014.12 1014.48 1014.55 1014.04 1013.54 1013.34 1013.31 1013.47 1013.08 1013.66 1014.97 1015.74 1015.59
1012.63 1012.02 1011.74 1011.45 1011.00 1010.41 1009.58 1008.93 1008.41 1007.76 1009.30 1010.57 1011.70 1013.10 1013.87 1014.14 1014.09 1014.57 1016.01 1016.77 1015.86 1015.49 1015.07 1015.28 1015.26 1015.23 1014.77 1014.24 1014.04 1013.78 1013.96 1014.15 1014.17 1013.99 1014.36 1014.99 1015.11 1014.49 1013.94 1013.63 1013.75 1013.51 1013.43 1014.54 1015.08 1016.10 1015.68
1011.34 1010.83 1010.45 1010.07 1009.39 1008.56 1007.61 1006.54 1006.10 1007.23 1008.98 1010.21 1010.70 1013.12 1014.07 1014.13 1014.16 1015.02 1016.15 1015.80 1015.13 1014.38 1014.29 1014.39 1014.86 1014.90 1014.53 1014.25 1014.14 1013.85 1014.12 1014.29 1014.15 1013.92 1013.87 1014.49 1015.22 1015.18 1014.43 1014.13 1013.97 1013.94 1014.11 1014.85 1015.48 1016.64 1016.58
1010.31 1009.65 1009.15 1008.63 1008.29 1007.00 1005.68 1005.45 1005.91 1007.55 1008.79 1010.07 1010.14 1013.07 1014.21 1014.18 1014.36 1015.39 1015.71 1015.22 1014.38 1013.72 1013.43 1013.62 1013.90 1014.36 1014.25 1013.97 1013.93 1014.13 1014.50 1014.22 1013.96 1013.79 1013.69 1014.30 1015.01 1015.85 1015.09 1014.78 1014.50 1014.02 1014.09 1014.78 1015.72 1016.91 1017.20
1009.46 1008.61 1007.99 1007.47 1006.58 1005.26 1004.28 1004.27 1005.44 1007.50 1008.28 1009.63 1010.73 1012.93 1014.23 1014.35 1014.97 1015.22 1015.07 1014.26 1013.46 1013.30 1013.15 1012.93 1013.03 1013.41 1013.56 1013.63 1013.91 1014.21 1014.46 1014.34 1013.84 1013.75 1014.06 1014.43 1015.25 1016.26 1015.94 1015.25 1014.93 1014.88 1015.22 1015.86 1016.66 1017.97 1018.05
1008.96 1007.94 1006.87 1005.83 1004.76 1003.53 1002.84 1003.91 1005.45 1006.75 1007.53 1008.96 1011.08 1013.14 1014.42 1014.49 1014.86 1014.89 1014.34 1013.66 1013.14 1013.18 1013.04 1012.89 1012.76 1012.82 1012.90 1013.29 1014.01 1014.30 1014.38 1014.09 1013.95 1013.95 1014.25 1014.51 1015.68 1016.69 1016.67 1016.31 1015.48 1015.39 1015.59 1016.17 1016.65 1017.25 1017.62
1008.61 1007.92 1006.96 1005.54 1003.99 1002.69 1002.93 1004.29 1005.58 1006.46 1007.34 1008.54 1010.47 1013.18 1014.52 1014.58 1014.47 1014.20 1013.83 1013.63 1013.24 1012.92 1012.88 1012.65 1012.43 1012.40 1012.66 1013.24 1013.63 1014.31 1014.55 1014.35 1014.11 1014.22 1014.29 1014.62 1015.94 1016.43 1016.63 1016.31 1016.11 1016.07 1015.94 1016.07 1016.73 1017.81 1017.53
1007.90 1007.35 1006.40 1004.96 1003.34 1001.95 1002.92 1004.66 1005.67 1006.62 1007.59 1008.57 1010.16 1012.15 1012.52 1013.63 1014.24 1014.03 1013.70 1013.41 1013.09 1012.90 1012.70 1012.51 1012.51 1012.45 1012.71 1013.49 1014.01 1014.47 1014.58 1014.54 1014.33 1014.42 1014.62 1015.15 1016.40 1016.81 1016.79 1016.55 1016.34 1016.15 1016.08 1016.25 1016.75 1016.80 1016.75
1007.68 1007.21 1006.28 1004.76 1002.61 1002.86 1003.94 1005.07 1006.22 1007.09 1008.30 1008.76 1010.38 1011.48 1012.49 1013.12 1013.52 1014.04 1013.80 1013.41 1013.08 1012.92 1012.80 1012.80 1012.84 1013.00 1013.11 1013.71 1013.96 1014.46 1014.58 1014.76 1014.67 1014.87 1015.17 1015.81 1016.99 1017.27 1017.50 1017.00 1016.57 1016.23 1015.94 1015.92 1016.13 1016.22 1015.92
1008.03 1007.26 1006.17 1005.59 1004.85 1004.72 1005.46 1006.25 1006.77 1007.82 1008.68 1009.30 1010.48 1010.92 1011.35 1013.34 1013.77 1014.01 1013.58 1013.34 1013.19 1013.04 1013.22 1012.91 1013.11 1013.45 1013.76 1014.04 1014.07 1014.37 1014.56 1014.69 1014.85 1015.30 1015.87 1016.40 1017.25 1017.92 1018.38 1017.77 1017.00 1016.66 1015.58 1015.51 1015.51 1015.47 1015.36
1008.13 1007.83 1007.10 1006.01 1005.40 1005.99 1007.11 1007.58 1007.79 1008.62 1009.06 1009.64 1010.46 1010.73 1011.58 1013.57 1013.66 1013.47 1013.26 1013.14 1013.37 1013.37 1013.46 1013.74 1013.63 1013.80 1014.51 1014.24 1014.43 1014.66 1014.99 1015.25 1015.45 1015.88 1015.99 1016.67 1017.56 1018.25 1018.78 1018.21 1017.60 1016.13 1015.32 1015.08 1015.04 1014.85 1014.98
1008.27 1008.00 1007.19 1006.25 1004.89 1006.09 1007.11 1008.20 1008.42 1009.16 1009.61 1010.04 1010.63 1010.76 1011.49 1013.43 1013.68 1013.73 1013.58 1013.67 1013.96 1014.06 1014.25 1014.38 1014.56 1014.73 1014.57 1014.80 1015.68 1016.00 1016.27 1016.27 1016.47 1016.63 1016.72 1016.83 1017.68 1018.78 1019.19 1019.04 1017.80 1015.95 1015.25 1015.16 1015.16 1014.93 1014.79
1008.29 1007.92 1007.53 1007.16 1006.96 1006.94 1007.65 1008.33 1008.98 1009.58 1010.01 1010.36 1011.16 1011.14 1011.40 1012.84 1014.81 1014.52 1014.24 1014.16 1014.58 1014.89 1015.25 1015.28 1015.12 1014.94 1015.02 1015.74 1016.42 1017.01 1017.19 1016.98 1017.20 1017.31 1017.24 1017.50 1017.77 1018.68 1019.58 1019.19 1017.96 1016.21 1015.42 1015.19 1015.34 1015.63 1015.26
1008.30 1007.83 1007.72 1007.31 1006.90 1007.46 1008.09 1008.91 1009.56 1009.98 1010.46 1010.66 1011.60 1011.59 1011.81 1013.80 1015.32 1015.06 1014.73 1014.67 1014.81 1015.16 1015.81 1015.91 1015.66 1015.58 1015.62 1016.55 1017.30 1017.57 1017.52 1017.29 1017.50 1017.67 1017.90 1018.33 1018.83 1019.27 1019.54 1019.09 1017.60 1016.24 1015.76 1015.48 1016.32 1017.11 1016.10
1008.15 1007.67 1007.61 1007.53 1007.36 1007.71 1008.35 1009.16 1009.74 1010.31 1010.77 1011.17 1012.40 1012.09 1012.22 1014.41 1015.89 1015.70 1015.39 1015.28 1015.34 1015.32 1016.00 1016.32 1016.38 1016.47 1016.87 1017.26 1017.81 1018.01 1018.06 1017.63 1017.66 1017.65 1017.75 1018.13 1018.87 1019.27 1019.30 1018.91 1017.95 1016.55 1016.24 1016.77 1017.43 1016.80 1016.86
1007.75 1006.98 1006.21 1006.58 1007.40 1007.69 1008.62 1009.27 1009.83 1010.47 1011.07 1011.40 1012.70 1012.56 1012.49 1013.83 1016.30 1016.23 1016.16 1016.05 1015.84 1015.77 1015.93 1016.73 1017.01 1016.89 1017.13 1017.71 1018.18 1018.27 1018.31 1018.33 1018.18 1018.26 1017.83 1018.12 1018.00 1018.29 1018.49 1017.92 1017.20 1016.89 1016.82 1017.27 1017.44 1017.65 1017.29
Wind_Speed
24 24 24 24 25 24 22 21 20 18 15 14 12 11 9 7 10 7 8 8 9 11 8 3 5 7 3 1 7 6 6 4 1 3 5 5 6 6 10 4 7 12 6 19 19 10 5
26 25 26 27 25 25 25 23 20 18 16 14 14 12 9 6 8 7 9 6 8 9 7 2 3 5 1 3 4 1 4 2 1 2 3 3 6 9 4 5 11 6 15 10 20 16 2
27 27 29 27 27 27 26 25 20 18 16 14 13 12 9 7 6 6 7 8 8 8 7 4 3 1 1 10 2 4 1 2 2 1 4 2 5 7 7 4 11 18 5 10 17 16 3
26 26 28 30 28 28 28 26 27 17 18 15 14 11 7 6 3 4 7 8 6 7 8 6 2 2 6 5 3 3 3 2 2 2 1 4 4 3 3 7 4 10 6 12 15 16 9
26 27 28 28 31 30 29 27 27 17 17 15 13 11 8 5 3 2 6 5 6 5 3 2 1 2 7 7 3 4 3 2 4 1 3 5 3 4 6 8 8 7 6 12 7 19 7
27 27 28 29 30 31 30 29 29 22 19 17 14 10 8 5 3 1 5 4 4 4 1 1 2 2 5 3 4 3 1 2 6 2 3 3 3 4 1 10 10 13 5 6 7 10 16
29 29 29 29 30 31 32 30 29 25 19 16 12 10 7 7 3 2 1 4 3 1 1 4 4 3 5 4 4 1 2 4 3 3 2 3 3 6 5 4 3 13 5 11 4 12 10
29 30 31 30 30 33 31 31 27 32 19 16 13 11 8 7 4 5 4 2 3 2 1 6 6 4 4 2 4 1 5 1 2 3 2 4 2 7 7 2 3 12 9 12 15 16 6
30 31 31 31 31 33 31 30 28 31 20 19 16 13 11 7 7 4 3 4 0 3 2 3 4 3 2 2 3 3 3 5 3 3 5 4 6 9 5 3 8 4 13 8 15 7 5
31 31 31 31 30 31 32 30 29 33 21 19 17 15 13 9 5 4 2 3 3 4 5 5 1 2 2 2 4 2 2 3 2 1 4 3 8 9 5 7 8 5 4 17 19 4 4
29 31 31 30 30 32 32 30 29 34 20 23 21 18 15 11 6 4 4 6 4 6 7 2 3 2 3 3 4 2 2 3 5 4 4 2 8 6 6 3 0 3 14 14 13 7 3
31 30 31 29 31 30 32 30 30 31 21 24 21 19 16 5 1 2 6 6 5 8 4 4 2 2 2 2 2 3 3 3 4 3 10 5 1 5 4 3 7 9 19 13 7 3 1
30 31 29 31 29 31 30 32 30 29 24 24 22 18 12 5 5 7 5 4 6 6 3 2 0 3 4 3 4 2 2 2 3 4 6 7 6 5 4 8 11 14 5 4 3 1 3
31 31 27 25 30 32 33 35 34 37 28 25 22 17 6 2 5 7 4 6 5 3 4 1 3 5 2 3 2 3 2 5 6 6 5 5 6 10 9 3 5 3 1 4 4 4 2
31 29 25 24 31 36 38 35 40 26 29 26 22 4 3 2 5 4 5 4 9 7 7 7 3 1 3 2 2 4 4 3 4 5 4 4 4 5 7 4 3 3 6 0 6 2 5
30 28 24 28 31 37 40 36 17 32 30 28 8 4 2 3 5 5 5 5 3 3 5 4 5 3 1 1 2 4 5 3 3 2 2 2 6 4 4 3 5 2 3 1 2 3 1
28 27 27 29 31 38 22 21 33 33 32 19 9 5 2 4 4 3 4 5 5 4 3 5 5 5 4 2 1 2 5 4 4 5 4 3 4 4 2 4 3 4 3 6 5 3 4
26 28 28 30 33 29 27 9 36 34 31 7 4 5 2 2 3 2 4 6 3 3 1 2 4 3 5 3 3 3 3 2 5 2 3 1 4 4 1 3 1 0 3 4 5 2 2
24 29 31 31 33 34 31 39 37 37 27 6 5 5 1 1 3 2 3 3 2 4 3 3 3 4 2 4 5 2 2 4 5 5 2 1 3 4 7 6 5 3 2 4 5 3 2
23 26 29 31 35 36 29 35 36 37 23 4 5 6 2 1 1 4 4 4 4 3 3 3 3 2 3 4 5 4 2 1 3 3 4 3 3 4 6 4 4 2 0 2 4 4 2
23 26 29 31 34 13 35 35 36 32 19 2 3 3 5 8 8 4 1 5 5 5 1 3 2 3 5 3 3 3 2 1 3 6 3 4 3 3 2 1 2 1 2 4 4 4 5
21 25 29 32 36 28 30 31 32 27 7 4 5 5 3 3 6 6 1 6 5 3 4 3 5 3 4 5 5 5 5 1 1 4 4 3 1 3 4 7 1 2 4 4 4 4 6
19 23 28 26 16 18 24 26 28 17 3 3 0 2 5 4 5 6 5 6 7 6 5 3 7 5 5 4 4 4 3 2 2 4 2 3 3 3 2 4 4 4 2 3 2 2 3
17 20 25 26 20 23 21 19 19 11 6 3 1 3 4 3 4 5 7 4 8 3 6 3 4 5 3 4 4 4 7 7 7 6 2 3 3 2 1 4 3 6 3 4 5 5 5
16 18 20 20 17 26 25 19 16 13 8 4 1 3 4 4 2 3 7 7 7 5 5 4 4 1 4 5 5 4 5 4 3 5 5 2 4 3 3 1 6 2 1 1 2 6 3
16 18 17 18 15 21 20 18 13 15 10 4 3 1 4 7 1 3 5 4 5 4 4 3 3 1 5 3 3 3 4 4 2 1 3 5 5 4 2 2 4 5 2 2 2 5 4
18 18 15 16 6 20 18 17 13 10 9 4 2 4 5 6 4 4 3 5 3 5 4 2 2 2 3 2 3 3 3 3 4 5 4 2 3 4 2 2 7 4 4 0 1 5 7
20 18 16 10 17 19 21 18 14 14 8 5 1 4 4 4 4 5 5 3 3 3 5 3 4 3 3 3 3 3 3 4 2 3 5 6 5 3 3 2 6 3 3 0 3 5 5
23 25 22 18 14 23 21 16 14 16 10 4 3 2 4 7 4 0 3 2 4 1 6 3 2 2 3 5 1 3 2 1 3 3 1 1 5 4 7 5 2 2 3 3 2 4 6
Wind_Direction
329 335 333 335 312 285 275 269 245 233 239 254 259 270 279 299 304 293 309 300 322 313 322 293 322 348 11 310 251 250 282 350 74 167 187 191 217 214 238 206 219 242 251 209 245 321 253
332 331 330 325 325 334 298 281 265 231 230 238 251 259 261 278 295 306 312 288 324 313 326 282 312 359 50 275 242 280 302 113 64 351 280 262 217 214 260 245 200 208 226 249 221 257 232
326 331 328 328 322 324 320 312 284 225 224 235 239 247 257 270 284 289 313 315 325 302 308 299 310 354 269 243 251 316 12 153 142 128 241 131 294 196 156 288 244 245 232 218 197 235 271
328 327 324 325 325 322 317 316 305 217 219 221 236 238 249 270 275 312 299 313 310 298 283 277 267 82 252 253 274 266 133 136 117 148 164 175 76 269 213 315 188 179 252 205 191 208 247
325 327 324 323 325 320 317 315 314 225 217 213 227 233 235 253 247 306 294 301 304 300 273 195 82 158 268 302 247 249 180 258 171 207 195 183 170 208 151 239 186 164 193 207 173 181 259
324 325 324 322 323 318 315 308 310 249 207 203 214 212 224 223 208 289 297 303 288 307 269 144 243 287 268 275 279 267 341 15 233 195 251 216 215 152 215 202 183 172 181 136 209 167 176
323 324 324 320 320 318 317 316 312 297 203 192 199 204 207 207 197 255 66 59 51 312 76 199 228 242 265 290 264 42 20 349 221 239 249 213 240 202 223 176 283 151 162 153 139 127 169
319 321 320 319 320 315 315 318 308 316 196 185 182 193 190 194 178 124 118 163 223 174 189 232 254 244 261 201 288 263 4 301 212 283 251 221 212 209 166 209 309 175 161 167 145 159 117
314 316 315 315 316 315 314 312 314 311 191 180 169 184 182 173 136 115 157 220 107 92 111 247 224 244 264 75 295 289 21 11 261 258 224 206 145 149 133 276 248 176 158 142 130 138 95
310 312 310 310 311 313 311 309 306 308 192 171 164 177 175 158 136 164 197 215 123 85 70 298 304 269 141 139 284 211 115 195 180 282 232 95 135 132 173 238 176 114 154 118 124 110 84
307 306 306 305 307 304 309 305 310 309 194 167 162 175 173 171 145 152 188 123 108 58 62 265 324 144 138 289 314 49 159 212 303 105 233 4 133 131 187 6 205 124 113 105 89 72 136
303 299 299 302 300 299 300 304 296 301 195 162 159 172 164 176 108 138 121 108 59 46 266 352 331 11 336 273 213 293 226 234 284 15 74 62 295 14 357 332 102 96 87 66 65 71 267
297 297 296 295 300 300 297 300 294 295 177 158 158 171 146 161 175 140 120 62 46 116 307 284 6 10 338 284 309 288 335 44 45 49 17 32 3 345 28 50 48 105 100 93 69 90 234
299 295 303 299 306 301 298 299 299 290 161 155 156 158 168 178 131 122 76 59 90 180 192 117 74 326 302 336 281 327 10 34 28 53 58 44 13 3 342 60 110 37 134 107 131 173 174
299 296 299 308 304 297 292 284 287 166 150 151 142 93 107 174 133 83 84 85 206 204 164 145 54 40 307 320 307 28 53 42 38 38 103 114 44 321 29 35 25 329 37 48 112 35 70
300 299 309 293 298 293 290 280 245 146 150 148 122 115 99 154 117 77 80 236 231 179 126 101 141 205 306 282 34 25 16 347 5 36 197 131 78 345 338 52 329 65 146 338 31 130 182
303 305 304 304 300 295 320 316 150 149 149 151 100 112 156 134 80 68 182 221 231 194 154 129 168 149 218 223 53 73 353 346 10 338 51 108 87 284 357 17 93 354 25 44 78 69 137
309 307 310 311 301 311 313 250 146 154 149 150 108 100 174 111 116 175 189 193 193 140 184 115 114 149 169 166 55 81 96 324 321 296 56 2 108 76 112 293 274 67 122 115 112 223 69
313 311 318 312 316 318 310 149 149 156 157 121 95 97 40 114 149 220 267 194 127 128 175 153 148 214 178 142 98 91 49 305 327 33 79 86 23 64 358 358 347 31 22 96 89 57 210
311 320 318 321 320 316 151 150 158 159 165 102 113 120 123 218 199 158 156 165 126 146 155 190 130 125 98 66 41 127 105 282 349 28 48 91 96 142 171 187 137 133 238 120 93 90 185
321 322 324 328 320 162 149 155 158 164 172 74 66 156 169 175 198 184 93 156 129 148 226 196 56 127 127 103 82 101 92 2 1 360 42 81 78 60 71 63 107 133 195 165 153 185 162
329 325 330 332 337 145 147 153 159 166 157 75 125 135 55 117 143 131 223 205 151 122 135 171 136 136 112 135 164 175 132 181 206 15 46 21 84 75 25 22 246 284 267 237 203 201 253
327 332 331 332 355 124 143 154 160 157 77 84 64 40 103 133 127 129 194 178 176 129 26 116 148 102 85 149 123 103 87 124 130 130 82 64 110 54 314 336 326 346 247 221 257 209 194
326 333 326 327 328 135 146 164 174 142 48 103 188 107 101 134 137 182 152 144 146 146 133 39 76 99 151 110 108 54 45 64 69 38 65 112 90 85 211 13 25 249 298 237 220 253 214
328 332 337 351 127 143 151 173 185 149 41 78 21 89 108 102 115 94 104 112 88 59 67 73 29 23 129 60 63 42 356 26 36 28 21 72 114 82 105 168 283 318 15 89 64 283 198
327 330 337 332 331 151 154 161 164 171 44 75 50 349 90 122 357 334 99 115 130 108 39 48 37 91 66 86 88 140 189 200 219 66 37 57 68 105 107 111 239 254 340 107 90 308 329
324 324 332 323 185 149 144 145 178 169 61 84 41 23 77 100 353 7 116 152 112 93 101 128 155 76 45 82 95 151 226 180 162 175 168 71 31 139 157 248 287 263 307 107 110 259 332
333 322 309 303 156 155 153 153 162 148 100 69 341 359 104 95 21 5 11 99 73 87 134 191 77 352 55 88 135 194 156 223 110 174 176 164 140 181 113 156 279 6 6 139 262 289 302
330 317 281 246 205 152 150 160 152 141 122 100 78 329 50 76 129 39 96 43 31 83 123 33 137 108 162 99 119 113 129 69 155 222 54 197 178 181 178 215 219 299 134 148 260 289 316